[TLELIST] Archives

 

[list_settings.list_name] Current TLEs

November 17th 2008 PDT

HST 1 20580U 90037B 08320.60540263 .00000362 00000-0 15127-4 0 2638 2 20580 028.4688 055.5918 0003905 192.3490 167.7004 15.00428398817743 ISS (ZARYA) 1 25544U 98067A 08320.39346321 .00010190 00000-0 78727-4 0 6571 2 25544 051.6436 321.2737 0003921 356.0926 147.2483 15.72614110572324 CXO 1 25867U 99040B 08318.29166667 +.00000554 +00000-0 +10000-3 0 02646 2 25867 064.4828 076.2712 7104876 277.4282 356.9984 00.37801401004194 ____________________________________________________________________ These 2-Line ...Continue Reading

[list_settings.list_name] Current TLEs

November 16th 2008 PDT

HST 1 20580U 90037B 08319.54113514 .00000339 00000-0 13360-4 0 2624 2 20580 028.4686 062.5386 0003988 181.8565 178.2007 15.00427839817586 ISS (ZARYA) 1 25544U 98067A 08319.55847380 .00010446 00000-0 80643-4 0 6516 2 25544 051.6435 325.5526 0003737 351.3994 101.5743 15.72597613572199 CXO 1 25867U 99040B 08318.29166667 +.00000554 +00000-0 +10000-3 0 02646 2 25867 064.4828 076.2712 7104876 277.4282 356.9984 00.37801401004194 ____________________________________________________________________ These 2-Line ...Continue Reading

[list_settings.list_name] Current TLEs

November 15th 2008 PDT

HST 1 20580U 90037B 08317.67866537 .00000359 00000-0 14944-4 0 2616 2 20580 028.4682 074.6869 0003918 162.4520 197.6204 15.00427267817300 ISS (ZARYA) 1 25544U 98067A 08318.67148292 .00010913 00000-0 84099-4 0 6455 2 25544 051.6436 330.0973 0003809 346.3452 121.7147 15.72579683572054 CXO 1 25867U 99040B 08318.29166667 +.00000554 +00000-0 +10000-3 0 02646 2 25867 064.4828 076.2712 7104876 277.4282 356.9984 00.37801401004194 ____________________________________________________________________ These 2-Line ...Continue Reading

[list_settings.list_name] Current TLEs

November 14th 2008 PDT

HST 1 20580U 90037B 08317.67866537 .00000359 00000-0 14944-4 0 2616 2 20580 028.4682 074.6869 0003918 162.4520 197.6204 15.00427267817300 ISS (ZARYA) 1 25544U 98067A 08318.22101670 .00011943 00000-0 91629-4 0 6412 2 25544 051.6441 332.4033 0003785 347.9711 088.1728 15.72573517571983 CXO 1 25867U 99040B 08318.29166667 +.00000554 +00000-0 +10000-3 0 02646 2 25867 064.4828 076.2712 7104876 277.4282 356.9984 00.37801401004194 ____________________________________________________________________ These 2-Line ...Continue Reading

[list_settings.list_name] Current TLEs

November 13th 2008 PDT

HST 1 20580U 90037B 08316.54788008 .00000327 00000-0 12437-4 0 2606 2 20580 028.4681 082.0638 0003882 152.1224 207.9574 15.00426470817134 ISS (ZARYA) 1 25544U 98067A 08316.38750818 .00013456 00000-0 10282-3 0 6293 2 25544 051.6442 341.7991 0003710 336.4579 152.8817 15.72532403571698 CXO 1 25867U 99040B 08315.66666667 +.00000662 +00000-0 +10000-3 0 02638 2 25867 064.4618 076.3890 7103485 277.4293 359.6743 00.37809423004180 ____________________________________________________________________ These 2-Line ...Continue Reading

[list_settings.list_name] Current TLEs

November 12th 2008 PDT

HST 1 20580U 90037B 08314.81844316 .00000319 00000-0 11776-4 0 2593 2 20580 028.4676 093.3497 0003778 132.4940 227.5967 15.00425805816871 ISS (ZARYA) 1 25544U 98067A 08315.56267354 .00012898 00000-0 98853-4 0 6234 2 25544 051.6451 346.0256 0003585 332.6129 164.1293 15.72507446571568 CXO 1 25867U 99040B 08315.66666667 +.00000662 +00000-0 +10000-3 0 02638 2 25867 064.4618 076.3890 7103485 277.4293 359.6743 00.37809423004180 ____________________________________________________________________ These 2-Line ...Continue Reading

[list_settings.list_name] Current TLEs

November 11th 2008 PDT

HST 1 20580U 90037B 08314.81844316 .00000319 00000-0 11776-4 0 2593 2 20580 028.4676 093.3497 0003778 132.4940 227.5967 15.00425805816871 ISS (ZARYA) 1 25544U 98067A 08314.54872019 .00010072 00000-0 78333-4 0 6177 2 25544 051.6442 351.2199 0003657 328.8588 184.0286 15.72469917571404 CXO 1 25867U 99040B 08313.00000000 +.00000647 +00000-0 +10000-3 0 02629 2 25867 064.4435 076.4773 7099089 277.4190 356.7297 00.37807543004170 ____________________________________________________________________ These 2-Line ...Continue Reading

[list_settings.list_name] Current TLEs

November 10th 2008 PDT

HST 1 20580U 90037B 08313.55462194 .00000316 00000-0 11572-4 0 2583 2 20580 028.4681 101.5953 0003707 119.9550 240.1406 15.00425478816689 ISS (ZARYA) 1 25544U 98067A 08313.71360074 .00009053 00000-0 70945-4 0 6110 2 25544 051.6446 355.4997 0003551 325.2073 136.9922 15.72447867571271 CXO 1 25867U 99040B 08313.00000000 +.00000647 +00000-0 +10000-3 0 02629 2 25867 064.4435 076.4773 7099089 277.4190 356.7297 00.37807543004170 ____________________________________________________________________ These 2-Line ...Continue Reading

[list_settings.list_name] Current TLEs

November 9th 2008 PDT

HST 1 20580U 90037B 08311.89169803 +.00000332 +00000-0 +12842-4 0 02656 2 20580 028.4679 112.4403 0003716 101.8685 258.2319 15.00425084816435 ISS (ZARYA) 1 25544U 98067A 08312.86548611 .00008583 00000-0 67553-4 0 6062 2 25544 051.6443 359.8447 0003540 318.6336 019.3357 15.72429313571139 CXO 1 25867U 99040B 08313.00000000 +.00000647 +00000-0 +10000-3 0 02629 2 25867 064.4435 076.4773 7099089 277.4190 356.7297 00.37807543004170 ____________________________________________________________________ These 2-Line ...Continue Reading

[list_settings.list_name] Current TLEs

November 8th 2008 PDT

HST 1 20580U 90037B 08311.89169803 .00000332 00000-0 12842-4 0 2577 2 20580 028.4679 112.4403 0003716 101.8685 258.2319 15.00425084816435 ISS (ZARYA) 1 25544U 98067A 08311.91500000 .00009158 00000-0 71815-4 0 5993 2 25544 051.6444 004.7127 0003473 315.1862 038.7382 15.72414245570985 CXO 1 25867U 99040B 08310.37500000 +.00000545 +00000-0 +10000-3 0 02617 2 25867 064.4303 076.5391 7094333 277.4256 359.4212 00.37805920004164 ____________________________________________________________________ These 2-Line ...Continue Reading
  • This mailing list is a public mailing list - anyone may join or leave, at any time.
  • This mailing list is announce-only.

International Space Station (ISS) / Hubble Space Telescope (HST) / Chandra X-Ray Observatory Orbital Data via EMAIL

Privacy Policy:

Private list